SITRO-AIS 6 (CHIRKIN)

Last updated on Sat Aug 30 2025 00:03:48 GMT+0000 (Coordinated Universal Time)

1 57192U 23091AC 25241.23703037 .00008943 00000+0 40594-3 0 9996 2 57192 97.5508 298.3513 0014544 54.4986 305.7603 15.20939350119838
UTC large
Height (km)
Speed (km/s)
/
Latitude / Longitude
Inclination (degrees)
Orbital Period (minutes)
Azimuth
Elevation
Range (km)
Doppler Factor

Next 0 passes for location: London (51.5072 / 0.1276)

Sorry there are no passes over London.